Weather History for St. Augustine, FL

Change the Weather History Date:

Thursday, January 27, 2000

  Actual Average Record
Temperature  
Mean Temperature 36 °F -  
Max Temperature 46 °F 62 °F 81 °F (1974)
Min Temperature 26 °F 45 °F 26 °F (2000)
Degree Days  
Heating Degree Days 29    
Moisture  
Dew Point 20 °F    
Average Humidity 53    
Maximum Humidity 70    
Minimum Humidity 34    
Precipitation  
Precipitation 0.00 in - - ()
Sea Level Pressure  
Sea Level Pressure 30.29 in    
Wind  
Wind Speed 7 mph (NNW)    
Max Wind Speed 12 mph    
Max Gust Speed -    
Visibility 10 miles    
Events      
Averages and records for this station are not official NWS values.
T = Trace of Precipitation, MM = Missing Value Source: NWS Daily Summary

Daily Weather History Graph

Daily Weather History Graph

Search for Another Location

Airport:

Trip Planner

Search our weather history database for the weather conditions in past years. The results will help you decide how hot, cold, wet, or windy it might be!

Date:

Astronomy

Jan. 27, 2000 Rise Set
Actual Time 7:18 AM EST 5:57 PM EST
Civil Twilight 6:53 AM EST 6:23 PM EST
Nautical Twilight 6:24 AM EST 6:52 PM EST
Astronomical Twilight 5:55 AM EST 7:20 PM EST
Moon No Moon Rise 11:42 AM EST
Length of Visible Light 11h 29m
Length of Day
10h 39m
Waning Gibbous, 56% of the Moon is Illuminated
Jan 27
Waning Gibbous
Jan 28
Last Quarter
Feb 5
New
Feb 12
First Quarter
Feb 19
Full

Hourly Weather History & Observations

Time (EST) Temp. Windchill Dew Point Humidity Pressure Visibility Wind Dir Wind Speed Gust Speed Precip Events Conditions
12:15 AM 30.2 °F 24.3 °F 15.8 °F 55% 30.22 in 10.0 mi WNW 5.8 mph - N/A   Clear
12:35 AM 30.2 °F 25.4 °F 15.8 °F 55% 30.23 in 10.0 mi West 4.6 mph - N/A   Clear
12:55 AM 30.2 °F 23.4 °F 15.8 °F 55% 30.23 in 10.0 mi WNW 6.9 mph - N/A   Clear
1:15 AM 30.2 °F 24.3 °F 15.8 °F 55% 30.23 in 10.0 mi WNW 5.8 mph - N/A   Clear
1:35 AM 30.2 °F 23.4 °F 14.0 °F 51% 30.23 in 10.0 mi WNW 6.9 mph - N/A   Clear
1:55 AM 30.2 °F 22.6 °F 15.8 °F 55% 30.22 in 10.0 mi NW 8.1 mph - N/A   Clear
2:15 AM 30.2 °F 22.6 °F 15.8 °F 55% 30.22 in 10.0 mi NW 8.1 mph - N/A   Clear
2:35 AM 28.4 °F 22.2 °F 15.8 °F 59% 30.23 in 10.0 mi NW 5.8 mph - N/A   Clear
2:55 AM 28.4 °F 21.2 °F 15.8 °F 59% 30.23 in 10.0 mi NW 6.9 mph - N/A   Clear
3:15 AM 28.4 °F 21.2 °F 15.8 °F 59% 30.23 in 10.0 mi NW 6.9 mph - N/A   Clear
3:35 AM 28.4 °F 21.2 °F 15.8 °F 59% 30.23 in 10.0 mi NW 6.9 mph - N/A   Clear
3:55 AM 30.2 °F 22.6 °F 14.0 °F 51% 30.23 in 10.0 mi NW 8.1 mph - N/A   Clear
4:15 AM 26.6 °F 19.1 °F 15.8 °F 64% 30.23 in 10.0 mi NW 6.9 mph - N/A   Clear
4:35 AM 28.4 °F 21.2 °F 15.8 °F 59% 30.23 in 10.0 mi NW 6.9 mph - N/A   Clear
4:55 AM 28.4 °F 20.4 °F 15.8 °F 59% 30.24 in 10.0 mi NW 8.1 mph - N/A   Clear
5:15 AM 28.4 °F 19.7 °F 15.8 °F 59% 30.25 in 10.0 mi NW 9.2 mph - N/A   Clear
5:35 AM 28.4 °F 20.4 °F 15.8 °F 59% 30.25 in 10.0 mi NW 8.1 mph - N/A   Clear
5:55 AM 26.6 °F 17.5 °F 15.8 °F 64% 30.26 in 10.0 mi NW 9.2 mph - N/A   Clear
6:15 AM 28.4 °F 19.7 °F 15.8 °F 59% 30.26 in 10.0 mi NW 9.2 mph - N/A   Clear
6:35 AM 28.4 °F 19.7 °F 15.8 °F 59% 30.27 in 10.0 mi NW 9.2 mph - N/A   Clear
6:55 AM 28.4 °F 19.7 °F 15.8 °F 59% 30.27 in 10.0 mi NW 9.2 mph - N/A   Clear
7:15 AM 28.4 °F 21.2 °F 15.8 °F 59% 30.29 in 10.0 mi NW 6.9 mph - N/A   Clear
7:35 AM 28.4 °F 19.7 °F 14.0 °F 55% 30.30 in 10.0 mi NW 9.2 mph - N/A   Clear
7:55 AM 28.4 °F 20.4 °F 14.0 °F 55% 30.31 in 10.0 mi NW 8.1 mph - N/A   Clear
8:15 AM 28.4 °F 22.2 °F 15.8 °F 59% 30.32 in 10.0 mi NW 5.8 mph - N/A   Clear
8:35 AM 30.2 °F 23.4 °F 15.8 °F 55% 30.32 in 10.0 mi NW 6.9 mph - N/A   Clear
8:55 AM 33.8 °F 26.4 °F 17.6 °F 52% 30.33 in 10.0 mi NW 9.2 mph - N/A   Clear
9:15 AM 35.6 °F 29.2 °F 19.4 °F 52% 30.35 in 10.0 mi WNW 8.1 mph - N/A   Clear
9:35 AM 37.4 °F 30.8 °F 19.4 °F 48% 30.36 in 10.0 mi NW 9.2 mph - N/A   Clear
9:55 AM 37.4 °F 33.8 °F 19.4 °F 48% 30.36 in 10.0 mi WNW 4.6 mph - N/A   Clear
10:15 AM 39.2 °F 35.9 °F 19.4 °F 45% 30.37 in 10.0 mi WNW 4.6 mph - N/A   Clear
10:35 AM 39.2 °F 35.9 °F 17.6 °F 42% 30.36 in 10.0 mi NW 4.6 mph - N/A   Clear
10:55 AM 42.8 °F 38.0 °F 19.4 °F 39% 30.37 in 10.0 mi NE 8.1 mph - N/A   Clear
11:15 AM 42.8 °F 38.6 °F 17.6 °F 36% 30.37 in 10.0 mi NE 6.9 mph - N/A   Clear
11:35 AM 42.8 °F 40.1 °F 19.4 °F 39% 30.36 in 10.0 mi NNE 4.6 mph - N/A   Clear
11:55 AM 42.8 °F 38.0 °F 19.4 °F 39% 30.36 in 10.0 mi NE 8.1 mph - N/A   Clear
12:15 PM 44.6 °F 40.7 °F 21.2 °F 39% 30.34 in 10.0 mi NE 6.9 mph - N/A   Clear
12:35 PM 44.6 °F 39.7 °F 21.2 °F 39% 30.33 in 10.0 mi NE 9.2 mph - N/A   Clear
12:55 PM 44.6 °F 39.7 °F 21.2 °F 39% 30.33 in 10.0 mi NE 9.2 mph - N/A   Clear
1:15 PM 44.6 °F 40.2 °F 17.6 °F 34% 30.32 in 10.0 mi NNE 8.1 mph - N/A   Clear
1:35 PM 44.6 °F 39.2 °F 17.6 °F 34% 30.30 in 10.0 mi NE 10.4 mph - N/A   Clear
1:55 PM 44.6 °F 39.2 °F 24.8 °F 46% 30.30 in 10.0 mi NE 10.4 mph - N/A   Clear
2:15 PM 44.6 °F 39.2 °F 24.8 °F 46% 30.30 in 10.0 mi NNE 10.4 mph - N/A   Clear
2:35 PM 44.6 °F 39.7 °F 26.6 °F 49% 30.30 in 10.0 mi NNE 9.2 mph - N/A   Clear
2:55 PM 44.6 °F 39.7 °F 26.6 °F 49% 30.30 in 10.0 mi NNE 9.2 mph - N/A   Clear
3:15 PM 46.4 °F 41.1 °F 28.4 °F 50% 30.30 in 10.0 mi NE 11.5 mph - N/A   Clear
3:35 PM 44.6 °F 39.2 °F 28.4 °F 53% 30.29 in 10.0 mi NNE 10.4 mph - N/A   Clear
3:55 PM 44.6 °F 39.2 °F 30.2 °F 57% 30.29 in 10.0 mi NNE 10.4 mph - N/A   Clear
4:15 PM 44.6 °F 38.8 °F 30.2 °F 57% 30.30 in 10.0 mi NE 11.5 mph - N/A   Clear
4:35 PM 44.6 °F 39.2 °F 30.2 °F 57% 30.30 in 10.0 mi NNE 10.4 mph - N/A   Clear
4:55 PM 44.6 °F 39.7 °F 30.2 °F 57% 30.30 in 10.0 mi NNE 9.2 mph - N/A   Clear
5:15 PM 44.6 °F 40.2 °F 30.2 °F 57% 30.31 in 10.0 mi North 8.1 mph - N/A   Clear
5:35 PM 42.8 °F 38.0 °F 30.2 °F 61% 30.31 in 10.0 mi North 8.1 mph - N/A   Clear
5:55 PM 42.8 °F 39.3 °F 30.2 °F 61% 30.32 in 10.0 mi North 5.8 mph - N/A   Clear
6:15 PM 41.0 °F 38.0 °F 30.2 °F 65% 30.32 in 10.0 mi NNW 4.6 mph - N/A   Clear
6:35 PM 39.2 °F 35.9 °F 30.2 °F 70% 30.33 in 10.0 mi NW 4.6 mph - N/A   Clear
6:55 PM 39.2 °F 35.9 °F 30.2 °F 70% 30.34 in 10.0 mi NW 4.6 mph - N/A   Clear
7:15 PM 39.2 °F 35.0 °F 30.2 °F 70% 30.35 in 10.0 mi NW 5.8 mph - N/A   Clear
7:35 PM 37.4 °F 33.8 °F 30.2 °F 75% 30.35 in 10.0 mi WNW 4.6 mph - N/A   Clear
7:55 PM 37.4 °F 34.9 °F 28.4 °F 70% 30.36 in 10.0 mi NW 3.5 mph - N/A   Partly Cloudy
8:15 PM 37.4 °F 32.8 °F 28.4 °F 70% 30.35 in 10.0 mi NW 5.8 mph - N/A   Partly Cloudy
8:35 PM 37.4 °F 32.8 °F 28.4 °F 70% 30.35 in 10.0 mi NNW 5.8 mph - N/A   Partly Cloudy
8:55 PM 39.2 °F 35.9 °F 30.2 °F 70% 30.35 in 10.0 mi NW 4.6 mph - N/A   Clear
9:15 PM 39.2 °F 34.2 °F 30.2 °F 70% 30.36 in 10.0 mi NE 6.9 mph - N/A   Partly Cloudy
9:35 PM 44.6 °F 38.8 °F 33.8 °F 66% 30.36 in 10.0 mi NE 11.5 mph - N/A   Partly Cloudy
9:55 PM 44.6 °F 38.8 °F 33.8 °F 66% 30.37 in 10.0 mi NE 11.5 mph - N/A   Partly Cloudy
10:15 PM 46.4 °F 41.1 °F 33.8 °F 62% 30.36 in 10.0 mi NE 11.5 mph - N/A   Partly Cloudy
10:35 PM 46.4 °F 41.5 °F 33.8 °F 62% 30.36 in 10.0 mi NE 10.4 mph 18.4 mph N/A   Partly Cloudy
10:55 PM 46.4 °F 41.1 °F 35.6 °F 66% 30.36 in 10.0 mi NE 11.5 mph - N/A   Partly Cloudy
11:15 PM 46.4 °F 41.5 °F 35.6 °F 66% 30.37 in 10.0 mi NE 10.4 mph - N/A   Clear
11:35 PM 46.4 °F 40.7 °F 35.6 °F 66% 30.36 in 10.0 mi NE 12.7 mph - N/A   Clear
11:55 PM 46.4 °F 40.4 °F 35.6 °F 66% 30.35 in 10.0 mi NE 13.8 mph - N/A   Clear